#timestamp,LO_Frequency,Hit,StdDev 
1615114815.6,286047001.1,N
1615114835.4,286046998.4,N
1615114855.3,286047001.2,N
1615114875.1,286046999.0,N
1615114876.0,286046999.0,N
1615114895.8,286046997.0,N
1615114915.7,286046996.8,N
1615114935.5,286046996.9,N
1615114955.3,286046999.1,N
1615114975.2,286046998.3,N
1615114995.0,286047000.0,N
1615114995.9,286047000.0,N
1615115015.8,286047000.3,N
1615115035.6,286047000.5,N
1615115055.4,286047000.7,N
1615115075.3,286047002.8,N
1615115095.1,286047000.1,N
1615115115.8,286047000.4,N
1615115135.7,286046998.1,N
1615115155.5,286047000.2,N
1615115175.4,286047000.7,N
1615115195.2,286046998.7,N
1615115215.0,286046997.8,N
1615115215.9,286046997.8,N
1615115235.8,286046997.9,N
1615115255.6,286046994.9,Y
1615115275.5,286046997.4,P
1615115295.3,286046996.6,P
1615115315.1,286046997.2,N
1615115335.9,286046997.2,N
1615115355.7,286046997.7,N
1615115375.5,286046997.7,N
1615115395.4,286046997.9,N
1615115415.2,286046997.1,Y
1615115435.1,286047000.7,P
1615115436.0,286047000.7,N
1615115455.8,286047001.0,N
1615115475.6,286046998.5,N
1615115495.5,286046999.6,N
1615115515.3,286047000.7,N
1615115535.1,286046998.1,N
1615115555.9,286047000.7,N
1615115575.7,286047002.8,N
1615115595.6,286047002.8,N
1615115615.4,286047001.5,N
1615115635.2,286047001.6,N
1615115655.1,286047003.1,N
1615115656.0,286047003.1,N
1615115675.8,286047004.3,N
1615115695.6,286047003.2,N
1615115715.5,286047004.2,N
1615115735.3,286047004.2,N
1615115755.2,286047003.7,N
1615115775.9,286047001.8,N
1615115795.7,286047002.4,N
1615115815.6,286047001.9,N
1615115835.4,286047001.7,N
1615115855.2,286047003.8,N
1615115875.1,286047004.4,N
1615115876.0,286047004.4,N
1615115895.8,286047001.6,N
1615115915.7,286047000.6,N
1615115935.5,286047000.0,N
1615115985.4,286046999.7,E
1615115995.3,286047002.2,N
1615116015.1,286046999.8,P
1615116035.9,286047002.3,N
1615116055.7,286047000.4,N
1615116075.5,286047003.8,Y
1615116095.4,286047001.3,P
1615116115.2,286047000.9,P
1615116135.0,286046998.5,P
1615116136.0,286046998.5,N
1615116155.8,286047001.1,N
1615116175.6,286046998.5,N
1615116195.5,286046999.5,N
1615116215.3,286046999.4,N
1615116235.1,286046999.3,N
1615116255.9,286047002.0,N
1615116275.7,286047002.0,N
1615116295.6,286047001.5,N
1615116315.4,286047002.6,N
1615116335.2,286047001.6,N
1615116355.1,286047004.4,Y
1615116356.0,286047004.4,P
1615116375.8,286047004.2,N
1615116395.6,286047003.8,N
1615116415.5,286047006.0,Y
1615116435.3,286047001.6,P
1615116455.2,286047000.1,N
1615116475.9,286047000.0,N
1615116495.7,286047002.7,N
1615116515.6,286047001.9,N
1615116535.4,286047002.1,N
1615116555.2,286047002.3,N
1615116575.1,286047001.6,N
1615116576.0,286047001.6,N
1615116595.8,286047001.7,N
1615116615.7,286047002.4,N
1615116635.5,286047002.6,N
1615116655.3,286047002.5,N
1615116675.2,286046999.8,N
1615116695.9,286046998.5,N
1615116715.7,286047001.2,N
1615116735.6,286047000.3,N
1615116755.4,286047002.7,N
1615116775.2,286047000.2,N
1615116795.1,286047000.7,N
1615116796.0,286047000.7,N
1615116815.8,286047002.1,N
1615116835.7,286047004.0,Y
1615116855.5,286047004.2,P
1615116875.3,286047003.7,N
1615116895.2,286047002.0,N
1615116915.0,286047004.1,Y
1615116915.9,286047004.1,P
1615116935.8,286047002.8,P
1615116955.6,286046999.9,N
1615116975.4,286047002.4,N
1615116995.3,286047002.2,N
1615117015.1,286047002.2,N
1615117035.8,286046999.8,N
1615117055.7,286047000.5,N
1615117075.5,286046999.3,N
1615117095.3,286046999.1,N
1615117115.2,286046999.3,N
1615117135.0,286046999.3,N
1615117135.9,286046999.3,N
1615117155.8,286047000.9,N
1615117175.6,286046998.1,N
1615117195.4,286046999.3,N
1615117215.3,286046996.6,N
1615117235.1,286046999.3,N
1615117255.9,286046997.1,N
1615117275.7,286046994.9,N
1615117295.5,286046997.9,N
1615117315.4,286046998.0,N
1615117335.2,286046996.1,N
1615117355.0,286046995.2,N
1615117356.0,286046995.2,N
1615117375.8,286046995.8,N
1615117395.6,286046995.8,N
1615117415.5,286046993.5,N
1615117435.3,286046995.9,N
1615117455.1,286046996.1,N
1615117475.9,286046998.0,N
1615117495.7,286046994.9,N
1615117515.5,286046995.5,N
1615117535.4,286046995.2,N
1615117555.2,286046995.1,N
1615117575.1,286046996.0,N
1615117576.0,286046996.0,N
1615117595.8,286046997.3,N
1615117615.6,286046998.0,N
1615117635.5,286046997.3,N
1615117655.3,286046996.1,N
1615117675.1,286046995.3,N
1615117695.9,286046997.3,N
1615117715.7,286046995.7,N
1615117735.6,286046997.1,N
1615117755.4,286046996.9,N
1615117775.2,286047000.9,N
1615117795.1,286047001.5,N
1615117796.0,286047001.5,N
1615117815.8,286046999.9,N
1615117835.7,286046998.5,N
1615117855.5,286046998.6,N
1615117875.3,286046998.2,N
1615117895.2,286046996.9,N
1615117915.0,286046996.5,N
1615117915.9,286046996.5,N
1615117935.7,286046997.2,N
1615117955.6,286046996.6,N
1615117975.4,286046997.6,N
1615117995.3,286046997.7,N
1615118015.1,286047001.1,N
1615118016.0,286047001.1,N
1615118035.8,286046996.8,N
1615118055.7,286046996.7,N
1615118075.5,286046996.5,N
1615118095.3,286046996.9,N
1615118115.2,286046996.5,N
1615118135.0,286046999.1,N
1615118135.9,286046999.1,N
1615118155.8,286046997.2,N
1615118175.6,286046998.0,N
1615118195.4,286046997.6,N
1615118215.3,286046997.4,N
1615118235.1,286046995.6,N
1615118255.8,286046995.1,N
1615118275.7,286046996.2,N
1615118295.5,286046993.5,Y
1615118315.4,286046995.3,P
1615118335.2,286046996.0,P
1615118355.0,286046997.7,N
1615118355.9,286046997.7,N
1615118375.8,286046998.0,N
1615118395.6,286046997.4,N
